[[{"header":{"parameterUnit":"m.s-1","parameterCategory":2,"la1":30.2991,"la2":30.254,"lo1":-89.0895,"lo2":-89.0444,"dy":0.0017,"dx":0.0017,"nx":28,"ny":28,"refTime":"2025-03-05T03:00:00:Z","depth":"0","parameterNumber":2,"parameterNumberName":"U-component_of_CURRENTS"},"data":[0,0,0,0,0,0,0,0,0,0,0,0,0,0,0,0,0,0,0,0,0,0,0,0,0,0,0,0,0,0,0,0,0,0,0,0,0,0,0,0,0,0,0,0,0,0,0,0,0,0,0,0,0,0,0,0,0,0,-0.2322,-0.2323,0,-0.2432,-0.2433,-0.2434,-0.2381,-0.2379,-0.2376,-0.2373,-0.2355,-0.2357,-0.2359,0,0,0,0,0,0,0,0,0,0,0,0,0,-0.2184,-0.2186,-0.2322,-0.2323,-0.2325,-0.2431,-0.2433,-0.2434,-0.2382,-0.2379,-0.2375,-0.2372,-0.2354,-0.2357,-0.2359,0,0,0,0,0,0,0,0,0,0,0,0,0,-0.2263,-0.2186,-0.2321,-0.2312,-0.2312,-0.2431,-0.2433,-0.2435,-0.2383,-0.2379,-0.2374,-0.2371,-0.2353,-0.2356,-0.236,-0.246,0,0,-0.2369,-0.237,0,0,0,0,0,0,0,0,-0.2258,-0.2267,-0.2312,-0.2313,-0.2313,-0.2389,-0.2378,-0.2437,-0.2384,-0.2355,-0.2373,-0.2369,-0.2358,-0.2361,-0.2391,-0.246,-0.2459,-0.2369,-0.2371,-0.2372,-0.2373,0,0,0,0,0,0,0,-0.2252,-0.2263,-0.2364,-0.2314,-0.2315,-0.2343,-0.2348,-0.239,-0.2375,-0.2357,-0.2354,-0.2369,-0.2357,-0.2388,-0.239,-0.2458,-0.2369,-0.2372,-0.2374,-0.2375,-0.253,-0.2532,0,0,0,0,0,0,-0.224,-0.2258,-0.2361,-0.2368,-0.2276,-0.2348,-0.2354,-0.2368,-0.2377,-0.2376,-0.2372,-0.2366,-0.2385,-0.2386,-0.2389,-0.2414,-0.2372,-0.2375,-0.2377,-0.2528,-0.2531,-0.2533,0,0,0,0,0,0,-0.2236,-0.2248,-0.2356,-0.2316,-0.2331,-0.2354,-0.2371,-0.2373,-0.2382,-0.2391,-0.2385,-0.2376,-0.2382,-0.2384,-0.2429,-0.2415,-0.2377,-0.2379,-0.2525,-0.2529,-0.2532,-0.2525,0,0,0,0,0,0,-0.2232,-0.2246,-0.2253,-0.2315,-0.2333,-0.2406,-0.2375,-0.2378,-0.2399,-0.2392,-0.2394,-0.2389,-0.2379,-0.2425,-0.2432,-0.2419,-0.2382,-0.2522,-0.2527,-0.2531,-0.2522,-0.2527,-0.2532,0,0,0,0,0,-0.2227,-0.2244,-0.2253,-0.2266,-0.2342,-0.2407,-0.2419,-0.2421,-0.2403,-0.2413,-0.243,-0.2387,-0.2455,-0.2431,-0.2439,-0.2425,-0.252,-0.2526,-0.2531,-0.252,-0.2526,-0.2532,0,0,0,0,0,0,-0.2182,-0.2244,-0.2253,-0.2286,-0.2336,-0.2397,-0.2411,-0.2427,-0.2456,-0.2442,-0.2439,-0.2438,-0.2469,-0.2474,-0.2447,-0.2489,-0.2473,-0.248,-0.2462,-0.2469,-0.2474,-0.2429,-0.2384,0,0,0,0,0,-0.2183,-0.2206,-0.2274,-0.2297,-0.2323,-0.2373,-0.24,-0.2411,-0.2449,-0.2455,-0.2467,-0.2482,-0.2509,-0.2506,-0.2538,-0.2576,-0.2515,-0.2571,-0.2575,-0.2579,-0.2553,-0.2487,-0.2481,-0.255,-0.255,-0.255,0,0,-0.217,-0.2208,-0.2219,-0.229,-0.2326,-0.237,-0.2377,-0.2418,-0.244,-0.2453,-0.2482,-0.2512,-0.2531,-0.2564,-0.2574,-0.2553,-0.2528,-0.2586,-0.2588,-0.2559,-0.2491,-0.2483,-0.2476,-0.2554,-0.2553,-0.2552,0,0,-0.2162,-0.2193,-0.2214,-0.2261,-0.2325,-0.2363,-0.2373,-0.2443,-0.2449,-0.2511,-0.2516,-0.2539,-0.2594,-0.2589,-0.2596,-0.2657,-0.257,-0.2671,-0.2637,-0.2575,-0.2566,-0.2558,-0.2449,-0.2431,-0.2655,-0.2655,-0.2655,0,-0.2142,-0.2181,-0.2231,-0.2271,-0.23,-0.2355,-0.2386,-0.2425,-0.2497,-0.25,-0.2507,-0.2569,-0.2593,-0.2597,-0.2622,-0.2657,-0.2596,-0.2604,-0.2573,-0.2564,-0.2555,-0.2446,-0.2426,-0.2656,-0.2656,-0.2655,-0.2655,0,-0.2157,-0.2191,-0.2209,-0.227,-0.2312,-0.2349,-0.2411,-0.244,-0.2463,-0.2493,-0.2514,-0.256,-0.2574,-0.2599,-0.2633,-0.2599,-0.2565,-0.2593,-0.2538,-0.2546,-0.2433,-0.2412,-0.2656,-0.2656,-0.2656,-0.2656,0,0,-0.2088,-0.2197,-0.2198,-0.2221,-0.2311,-0.234,-0.238,-0.2422,-0.2411,-0.2472,-0.2446,-0.2523,-0.2529,-0.2541,-0.2573,-0.253,-0.2438,-0.2538,-0.2535,-0.2393,-0.2251,-0.1985,-0.1937,-0.2454,-0.2452,-0.2449,-0.2185,0,-0.2076,-0.2139,-0.2198,-0.2236,-0.2271,-0.2328,-0.2354,-0.2393,-0.2416,-0.2412,-0.2432,-0.2441,-0.2511,-0.2508,-0.2483,-0.2469,-0.2388,-0.2504,-0.2296,-0.2288,-0.202,-0.1906,-0.17,-0.1426,-0.2164,-0.2161,-0.2158,0,-0.2063,-0.2105,-0.215,-0.2209,-0.2224,-0.2253,-0.2266,-0.2299,-0.2315,-0.2324,-0.2324,-0.2349,-0.233,-0.2378,-0.2282,-0.2352,-0.2292,-0.2259,-0.2248,-0.1979,-0.1982,-0.1546,-0.136,-0.1331,-0.2126,-0.2128,-0.2131,0,-0.1978,-0.206,-0.2085,-0.2113,-0.2196,-0.2199,-0.2229,-0.2261,-0.2249,-0.2252,-0.2215,-0.2223,-0.2178,-0.2146,-0.2107,-0.2188,-0.1946,-0.2046,-0.1726,-0.1707,-0.1474,-0.1436,-0.1194,-0.1915,-0.1915,-0.1916,-0.1917,0,-0.1938,-0.1946,-0.2044,-0.2054,-0.2045,-0.2132,-0.2099,-0.2132,-0.2131,-0.2051,-0.2153,-0.2056,-0.2116,-0.2012,-0.2013,-0.1752,-0.1855,-0.1648,-0.1596,-0.1464,-0.1431,-0.1351,-0.1466,-0.1906,-0.1908,-0.191,-0.1912,0,-0.1831,-0.1909,-0.1929,-0.2002,-0.2009,-0.1999,-0.201,-0.1962,-0.2005,-0.1889,-0.1877,-0.1884,-0.1707,-0.1702,-0.1589,-0.1547,-0.1327,-0.1281,-0.1088,-0.1014,-0.0676,-0.08,-0.0619,-0.0598,-0.0862,-0.0853,-0.0846,0,-0.1779,-0.1788,-0.1854,-0.1826,-0.1848,-0.1842,-0.1803,-0.1873,-0.1804,-0.1737,-0.1635,-0.1491,-0.1282,-0.1018,-0.092,-0.074,-0.0919,-0.047,-0.058,-0.0533,-0.0639,-0.0868,-0.0889,-0.0284,-0.0272,-0.0263,-0.0256,0,-0.1651,-0.1686,-0.1693,-0.1649,-0.1613,-0.1561,-0.1517,-0.1454,-0.1458,-0.1344,-0.1118,-0.096,-0.0688,-0.0363,-0.0164,-0.0112,-0.0434,-0.0265,-0.0286,-0.017,-0.0339,-0.0334,-0.0588,-0.0174,-0.0182,-0.0188,-0.0193,-0.0196,-0.1523,-0.1486,-0.1486,-0.1427,-0.1369,-0.1231,-0.1134,-0.1036,-0.0867,-0.061,-0.0593,-0.0229,0.0018,0.0367,0.0411,0.0583,0.025,0.0575,0.0423,0.0188,0.0217,0.0205,0.071,0.0707,0.0705,0.0703,0.0701,0,-0.1326,-0.1299,-0.1236,-0.115,-0.1008,-0.1048,-0.0883,-0.0733,-0.0439,-0.013,0.0145,0.0631,0.0921,0.1009,0.1191,0.1224,0.0998,0.1149,0.0819,0.0764,0.077,0.0811,0.1448,0.1448,0.1448,0.1448,0.1448,0.1448,-0.1215,-0.1099,-0.1073,-0.0811,-0.0736,-0.0506,-0.0383,-0.0158,0.0092,0.0655,0.1044,0.1271,0.1335,0.1405,0.1474,0.1456,0.1215,0.1243,0.1033,0.0997,0.0926,0.0858,0.0878,0.1518,0.1518,0.1073,0.107,0.1067]},{"header":{"parameterUnit":"m.s-1","parameterCategory":2,"la1":30.2991,"la2":30.254,"lo1":-89.0895,"lo2":-89.0444,"dy":0.0017,"dx":0.0017,"nx":28,"ny":28,"refTime":"2025-03-05T03:00:00:Z","depth":"0","parameterNumber":3,"parameterNumberName":"V-component_of_CURRENTS"},"data":[0,0,0,0,0,0,0,0,0,0,0,0,0,0,0,0,0,0,0,0,0,0,0,0,0,0,0,0,0,0,0,0,0,0,0,0,0,0,0,0,0,0,0,0,0,0,0,0,0,0,0,0,0,0,0,0,0,0,-0.0212,-0.0211,0,-0.0128,-0.0127,-0.0126,-0.0054,-0.0053,-0.0052,-0.0052,0.013,0.0134,0.0138,0,0,0,0,0,0,0,0,0,0,0,0,0,-0.0253,-0.0253,-0.0212,-0.0211,-0.021,-0.0128,-0.0127,-0.0126,-0.0054,-0.0053,-0.0052,-0.0051,0.0128,0.0133,0.0138,0,0,0,0,0,0,0,0,0,0,0,0,0,-0.0208,-0.0253,-0.0212,-0.0165,-0.016,-0.0129,-0.0127,-0.0125,-0.0054,-0.0053,-0.0052,-0.0051,0.0127,0.0133,0.0139,0.0157,0,0,0.0158,0.0161,0,0,0,0,0,0,0,0,-0.0211,-0.0206,-0.0173,-0.0169,-0.0163,-0.0101,-0.0075,-0.0027,-0.0054,-0.0093,-0.0052,-0.0051,0.006,0.0072,0.0085,0.0165,0.0173,0.0159,0.0162,0.0165,0.0167,0,0,0,0,0,0,0,-0.0214,-0.0209,-0.0178,-0.0172,-0.0166,-0.0129,-0.0122,-0.0065,-0.0021,-0.009,-0.0085,-0.0078,0.0064,0.0079,0.009,0.0176,0.0158,0.0164,0.0168,0.017,0.033,0.033,0,0,0,0,0,0,-0.0231,-0.0213,-0.018,-0.0175,-0.0186,-0.013,-0.0121,-0.0121,-0.0023,-0.0009,-0.0079,-0.0075,0.0068,0.0083,0.0097,0.014,0.0165,0.0171,0.0174,0.0329,0.033,0.0331,0,0,0,0,0,0,-0.0232,-0.0229,-0.0184,-0.0192,-0.0184,-0.013,-0.0131,-0.012,-0.0103,-0.0016,0.0001,-0.0072,0.0069,0.0088,0.0152,0.0147,0.0174,0.0179,0.0329,0.033,0.033,0.0216,0,0,0,0,0,0,-0.0234,-0.023,-0.0236,-0.0194,-0.0184,-0.0179,-0.0131,-0.0119,-0.0101,-0.0095,-0.0005,0.0013,0.0072,0.0142,0.0158,0.0156,0.0184,0.0328,0.0329,0.033,0.0219,0.0212,0.0207,0,0,0,0,0,-0.0236,-0.0251,-0.0237,-0.0233,-0.0194,-0.018,-0.0172,-0.0128,-0.0102,-0.0107,-0.0033,0.001,0.016,0.0147,0.0166,0.0166,0.0328,0.0329,0.033,0.0222,0.0214,0.0207,0,0,0,0,0,0,-0.0273,-0.0244,-0.0228,-0.0234,-0.0215,-0.0168,-0.0165,-0.0137,-0.0086,-0.0071,0.0013,0.0036,0.009,0.0147,0.0131,0.0218,0.0252,0.0257,0.0164,0.0157,0.0151,0.0133,0.0189,0,0,0,0,0,-0.0286,-0.0289,-0.0258,-0.0264,-0.0257,-0.0213,-0.02,-0.0174,-0.0124,-0.0102,-0.0039,0.0039,0.0107,0.0146,0.021,0.0254,0.0309,0.027,0.0263,0.0258,0.0259,0.0341,0.0341,0.0334,0.0334,0.0334,0,0,-0.0302,-0.0287,-0.0288,-0.0272,-0.025,-0.0248,-0.0203,-0.0193,-0.0181,-0.0088,-0.005,0.0016,0.0115,0.0165,0.0194,0.0213,0.0285,0.0259,0.0253,0.0258,0.0342,0.0342,0.0343,0.0335,0.0335,0.0335,0,0,-0.034,-0.0324,-0.0339,-0.0329,-0.0308,-0.0279,-0.0282,-0.0242,-0.0213,-0.0176,-0.0097,-0.0034,0.0056,0.0128,0.0178,0.0181,0.0247,0.02,0.0158,0.0236,0.0237,0.0238,0.0282,0.0289,0.02,0.0199,0.0199,0,-0.0361,-0.0372,-0.0343,-0.0356,-0.0345,-0.0299,-0.0308,-0.0279,-0.0223,-0.0191,-0.0177,-0.0028,0.0042,0.013,0.0127,0.0166,0.021,0.0169,0.0225,0.0228,0.0232,0.0277,0.0286,0.0194,0.0195,0.0195,0.0196,0,-0.0405,-0.0415,-0.0425,-0.042,-0.0407,-0.0411,-0.0368,-0.0346,-0.0307,-0.0267,-0.019,-0.0097,-0.0004,0.0023,0.0074,0.0138,0.0159,0.0201,0.0233,0.0225,0.0274,0.0285,0.0186,0.0188,0.019,0.0191,0,0,-0.0449,-0.0455,-0.0457,-0.046,-0.0439,-0.043,-0.041,-0.0368,-0.0339,-0.029,-0.0242,-0.0141,-0.0094,-0.0033,0.0042,0.0104,0.0149,0.0148,0.0155,0.0172,0.0296,0.0325,0.034,0.0197,0.0198,0.02,0.031,0,-0.0491,-0.0527,-0.051,-0.0528,-0.0538,-0.0487,-0.0467,-0.042,-0.037,-0.0318,-0.0222,-0.0155,-0.0112,-0.0069,-0.0004,0.0122,0.0177,0.0114,0.032,0.0326,0.0337,0.0354,0.0419,0.0525,0.0321,0.0323,0.0324,0,-0.0537,-0.0551,-0.0584,-0.0567,-0.0563,-0.0564,-0.0504,-0.048,-0.0396,-0.0352,-0.0278,-0.0209,-0.011,-0.0076,0.0109,0.0064,0.0164,0.0251,0.0259,0.0337,0.0376,0.051,0.0553,0.0638,0.0342,0.034,0.0339,0,-0.0575,-0.0595,-0.0618,-0.0619,-0.0599,-0.0588,-0.0563,-0.0493,-0.0451,-0.0375,-0.0339,-0.0223,-0.0147,-0.0018,0.014,0.0129,0.0342,0.036,0.0478,0.048,0.0604,0.0614,0.0744,0.049,0.049,0.0489,0.0489,0,-0.0624,-0.0641,-0.0641,-0.0656,-0.0656,-0.0627,-0.0599,-0.0558,-0.0484,-0.0421,-0.0362,-0.0285,-0.0127,0.0006,0.0136,0.0338,0.0345,0.0475,0.0521,0.0563,0.0568,0.0705,0.0717,0.0493,0.0493,0.0492,0.0491,0,-0.0668,-0.0675,-0.0697,-0.0688,-0.0682,-0.0681,-0.0627,-0.0591,-0.0537,-0.0453,-0.0432,-0.0311,-0.014,0.0014,0.0245,0.0349,0.062,0.06,0.0615,0.066,0.0826,0.0828,0.0986,0.1176,0.0738,0.074,0.0741,0,-0.0701,-0.0722,-0.0722,-0.072,-0.0719,-0.0705,-0.0676,-0.062,-0.0566,-0.0448,-0.0397,-0.0254,-0.0099,0.0203,0.0401,0.0625,0.0721,0.0804,0.0801,0.085,0.0887,0.0866,0.1015,0.0914,0.0916,0.0918,0.092,0,-0.0747,-0.0742,-0.0748,-0.0739,-0.0726,-0.0698,-0.0654,-0.0617,-0.0521,-0.0437,-0.0283,-0.0165,0.0088,0.0357,0.06,0.0748,0.0901,0.0852,0.0932,0.1056,0.1019,0.1218,0.079,0.0939,0.0937,0.0936,0.0935,0.0934,-0.0762,-0.0768,-0.0753,-0.0729,-0.0707,-0.0648,-0.0579,-0.0509,-0.0395,-0.0176,-0.0144,0.0153,0.0381,0.0733,0.0855,0.1099,0.1072,0.1185,0.1188,0.1164,0.1339,0.0921,0.11,0.1099,0.1098,0.1098,0.1097,0,-0.0762,-0.074,-0.0729,-0.0676,-0.0602,-0.0605,-0.0508,-0.038,-0.0192,0.0033,0.0229,0.0686,0.0849,0.1052,0.124,0.1389,0.1519,0.1481,0.1488,0.1642,0.1309,0.131,0.1508,0.1508,0.1508,0.1508,0.1508,0.1508,-0.0752,-0.0724,-0.0697,-0.0559,-0.0504,-0.035,-0.0262,-0.0085,0.0133,0.0607,0.0999,0.1269,0.15,0.1283,0.1422,0.1539,0.1801,0.1752,0.1907,0.1641,0.1613,0.1587,0.1593,0.1848,0.1848,0.2309,0.2312,0.2315]}],[{"header":{"parameterUnit":"m.s-1","parameterCategory":2,"la1":30.2991,"la2":30.254,"lo1":-89.0895,"lo2":-89.0444,"dy":0.0017,"dx":0.0017,"nx":28,"ny":28,"refTime":"2025-03-05T03:00:00:Z","depth":"2","parameterNumber":2,"parameterNumberName":"U-component_of_CURRENTS"},"data":[0,0,0,0,0,0,0,0,0,0,0,0,0,0,0,0,0,0,0,0,0,0,0,0,0,0,0,0,0,0,0,0,0,0,0,0,0,0,0,0,0,0,0,0,0,0,0,0,0,0,0,0,0,0,0,0,0,0,-0.2373,-0.2374,0,-0.2479,-0.248,-0.2481,-0.2427,-0.2424,-0.2421,-0.2419,-0.2398,-0.24,-0.2402,0,0,0,0,0,0,0,0,0,0,0,0,0,-0.2236,-0.2238,-0.2372,-0.2374,-0.2375,-0.2479,-0.248,-0.2482,-0.2427,-0.2424,-0.2421,-0.2418,-0.2398,-0.24,-0.2402,0,0,0,0,0,0,0,0,0,0,0,0,0,-0.2313,-0.2239,-0.2372,-0.2361,-0.2361,-0.2479,-0.248,-0.2482,-0.2428,-0.2424,-0.242,-0.2416,-0.2397,-0.24,-0.2403,-0.2503,0,0,-0.2412,-0.2413,0,0,0,0,0,0,0,0,-0.2308,-0.2318,-0.2362,-0.2362,-0.2363,-0.2436,-0.2425,-0.2483,-0.2429,-0.2402,-0.2419,-0.2414,-0.2403,-0.2405,-0.2435,-0.2502,-0.2501,-0.2412,-0.2414,-0.2415,-0.2416,0,0,0,0,0,0,0,-0.2303,-0.2314,-0.2414,-0.2363,-0.2364,-0.239,-0.2396,-0.2437,-0.2421,-0.2404,-0.24,-0.2415,-0.2401,-0.2432,-0.2433,-0.2501,-0.2412,-0.2415,-0.2417,-0.2418,-0.2571,-0.2573,0,0,0,0,0,0,-0.2291,-0.2309,-0.241,-0.2417,-0.2326,-0.2396,-0.2402,-0.2416,-0.2423,-0.2422,-0.2419,-0.2412,-0.2429,-0.243,-0.2432,-0.2457,-0.2415,-0.2418,-0.242,-0.2569,-0.2572,-0.2574,0,0,0,0,0,0,-0.2288,-0.2299,-0.2406,-0.2365,-0.2381,-0.2401,-0.2419,-0.242,-0.2428,-0.2436,-0.243,-0.2421,-0.2426,-0.2428,-0.2472,-0.2458,-0.2419,-0.2422,-0.2566,-0.257,-0.2573,-0.2566,0,0,0,0,0,0,-0.2283,-0.2298,-0.2305,-0.2365,-0.2383,-0.2454,-0.2423,-0.2425,-0.2445,-0.2437,-0.2438,-0.2433,-0.2423,-0.2468,-0.2475,-0.2462,-0.2424,-0.2563,-0.2568,-0.2572,-0.2563,-0.2568,-0.2573,0,0,0,0,0,-0.2278,-0.2297,-0.2305,-0.2317,-0.2392,-0.2455,-0.2467,-0.2468,-0.2449,-0.2459,-0.2475,-0.2432,-0.2498,-0.2474,-0.2481,-0.2468,-0.2561,-0.2567,-0.2572,-0.2561,-0.2567,-0.2573,0,0,0,0,0,0,-0.2236,-0.2296,-0.2305,-0.2338,-0.2386,-0.2445,-0.2459,-0.2474,-0.2501,-0.2486,-0.2483,-0.2482,-0.2512,-0.2517,-0.2489,-0.2531,-0.2515,-0.2522,-0.2505,-0.2511,-0.2516,-0.247,-0.2427,0,0,0,0,0,-0.2238,-0.226,-0.2327,-0.235,-0.2375,-0.2422,-0.2449,-0.2458,-0.2494,-0.25,-0.2511,-0.2526,-0.2552,-0.2548,-0.258,-0.2617,-0.2557,-0.2612,-0.2617,-0.262,-0.2593,-0.2528,-0.2522,-0.2591,-0.2591,-0.2591,0,0,-0.2225,-0.2263,-0.2273,-0.2343,-0.2377,-0.242,-0.2425,-0.2465,-0.2486,-0.2498,-0.2525,-0.2555,-0.2574,-0.2606,-0.2616,-0.2594,-0.2569,-0.2627,-0.2629,-0.2599,-0.2532,-0.2525,-0.2518,-0.2595,-0.2594,-0.2593,0,0,-0.2218,-0.2249,-0.2268,-0.2314,-0.2375,-0.2413,-0.2423,-0.249,-0.2495,-0.2556,-0.256,-0.2582,-0.2636,-0.2631,-0.2638,-0.2699,-0.2611,-0.2712,-0.2678,-0.2616,-0.2608,-0.26,-0.2492,-0.2474,-0.2697,-0.2697,-0.2697,0,-0.2197,-0.2236,-0.2284,-0.2324,-0.2352,-0.2405,-0.2435,-0.2473,-0.2542,-0.2544,-0.2551,-0.2611,-0.2635,-0.2638,-0.2664,-0.2698,-0.2638,-0.2645,-0.2614,-0.2606,-0.2597,-0.2489,-0.2469,-0.2697,-0.2697,-0.2697,-0.2697,0,-0.2211,-0.2245,-0.2262,-0.2321,-0.2362,-0.2398,-0.2458,-0.2486,-0.2508,-0.2537,-0.2557,-0.2603,-0.2616,-0.2641,-0.2674,-0.264,-0.2606,-0.2635,-0.2579,-0.2588,-0.2475,-0.2455,-0.2697,-0.2697,-0.2697,-0.2697,0,0,-0.2143,-0.2249,-0.225,-0.2272,-0.2361,-0.2388,-0.2428,-0.2467,-0.2456,-0.2515,-0.2489,-0.2564,-0.2571,-0.2582,-0.2613,-0.2571,-0.248,-0.2579,-0.2576,-0.2435,-0.2295,-0.2029,-0.1981,-0.2497,-0.2494,-0.2492,-0.2229,0,-0.213,-0.2191,-0.2248,-0.2286,-0.2318,-0.2374,-0.24,-0.2438,-0.2461,-0.2455,-0.2475,-0.2483,-0.2552,-0.2549,-0.2524,-0.251,-0.243,-0.2545,-0.2339,-0.2332,-0.2063,-0.195,-0.1949,-0.1693,-0.2208,-0.2205,-0.2202,0,-0.2116,-0.2157,-0.2199,-0.2257,-0.2272,-0.2299,-0.2312,-0.2344,-0.2359,-0.2367,-0.2367,-0.2392,-0.2372,-0.242,-0.2324,-0.2394,-0.2334,-0.2301,-0.2291,-0.2022,-0.2026,-0.1777,-0.1635,-0.2167,-0.217,-0.2173,-0.2175,0,-0.2032,-0.2112,-0.2134,-0.2161,-0.2242,-0.2244,-0.2275,-0.2305,-0.2293,-0.2296,-0.226,-0.2267,-0.2222,-0.219,-0.2151,-0.2231,-0.1991,-0.2091,-0.1771,-0.1752,-0.1693,-0.167,-0.196,-0.196,-0.196,-0.1961,-0.1962,0,-0.1993,-0.1999,-0.2093,-0.2102,-0.2091,-0.2177,-0.2144,-0.2176,-0.2176,-0.2096,-0.2197,-0.2103,-0.2161,-0.2057,-0.2058,-0.1798,-0.1901,-0.1693,-0.1642,-0.1688,-0.1669,-0.2061,-0.2077,-0.1951,-0.1953,-0.1955,-0.1957,0,-0.1887,-0.1962,-0.1979,-0.205,-0.2056,-0.2044,-0.2055,-0.2007,-0.2051,-0.1935,-0.1924,-0.1932,-0.1756,-0.1749,-0.1637,-0.1594,-0.1446,-0.1328,-0.134,-0.1289,-0.1277,-0.1297,-0.0933,-0.0921,-0.0911,-0.0902,-0.0895,0,-0.1834,-0.1841,-0.1904,-0.1874,-0.1895,-0.1887,-0.1847,-0.1918,-0.1849,-0.1785,-0.1685,-0.1542,-0.1339,-0.1076,-0.1012,-0.0839,-0.1042,-0.0732,-0.0869,-0.1171,-0.116,-0.1197,-0.1229,-0.0813,-0.0806,-0.08,-0.0795,0,-0.1706,-0.174,-0.1745,-0.1696,-0.1659,-0.1606,-0.1561,-0.1499,-0.1504,-0.1415,-0.1192,-0.1039,-0.0783,-0.0577,-0.0393,-0.0366,-0.0773,-0.0587,-0.0893,-0.1039,-0.1027,-0.1027,-0.107,-0.0742,-0.0747,-0.0751,-0.0754,-0.0756,-0.158,-0.1539,-0.1535,-0.1473,-0.1414,-0.1276,-0.1179,-0.1167,-0.1032,-0.0904,-0.0779,-0.055,-0.0484,-0.0122,-0.0077,-0.0115,-0.0155,-0.0267,-0.0301,-0.0338,-0.0336,-0.0302,0.012,0.012,0.0119,0.0119,0.0119,0,-0.1415,-0.1351,-0.1284,-0.1195,-0.1085,-0.1092,-0.0927,-0.0876,-0.0721,-0.0609,-0.0429,-0.0196,0.002,0.0042,0.013,0.0194,-0.0029,0.0116,-0.0221,-0.0266,-0.0308,-0.0325,0.0144,0.0144,0.0144,0.0143,0,0,-0.1313,-0.1208,-0.1177,-0.0924,-0.0818,-0.064,-0.052,-0.0491,-0.043,-0.03,-0.0161,-0.0019,0.0115,0.015,0.0155,0.0177,-0.0096,0.0131,0.012,-0.032,-0.0365,-0.0492,-0.0555,0,0,0,0,0]},{"header":{"parameterUnit":"m.s-1","parameterCategory":2,"la1":30.2991,"la2":30.254,"lo1":-89.0895,"lo2":-89.0444,"dy":0.0017,"dx":0.0017,"nx":28,"ny":28,"refTime":"2025-03-05T03:00:00:Z","depth":"2","parameterNumber":3,"parameterNumberName":"V-component_of_CURRENTS"},"data":[0,0,0,0,0,0,0,0,0,0,0,0,0,0,0,0,0,0,0,0,0,0,0,0,0,0,0,0,0,0,0,0,0,0,0,0,0,0,0,0,0,0,0,0,0,0,0,0,0,0,0,0,0,0,0,0,0,0,-0.0204,-0.0203,0,-0.012,-0.0119,-0.0118,-0.0047,-0.0046,-0.0045,-0.0045,0.0135,0.0139,0.0143,0,0,0,0,0,0,0,0,0,0,0,0,0,-0.0246,-0.0246,-0.0204,-0.0203,-0.0202,-0.0121,-0.0119,-0.0118,-0.0047,-0.0046,-0.0045,-0.0044,0.0134,0.0139,0.0144,0,0,0,0,0,0,0,0,0,0,0,0,0,-0.02,-0.0245,-0.0204,-0.0158,-0.0153,-0.0121,-0.0119,-0.0118,-0.0047,-0.0046,-0.0045,-0.0044,0.0132,0.0138,0.0145,0.0162,0,0,0.0164,0.0166,0,0,0,0,0,0,0,0,-0.0203,-0.0199,-0.0165,-0.0161,-0.0155,-0.0094,-0.0068,-0.002,-0.0047,-0.0086,-0.0045,-0.0043,0.0066,0.0078,0.0092,0.0171,0.0178,0.0164,0.0168,0.0171,0.0172,0,0,0,0,0,0,0,-0.0206,-0.0202,-0.017,-0.0165,-0.0158,-0.0122,-0.0115,-0.0059,-0.0014,-0.0082,-0.0077,-0.007,0.007,0.0085,0.0097,0.0181,0.0164,0.0169,0.0173,0.0176,0.0334,0.0335,0,0,0,0,0,0,-0.0223,-0.0205,-0.0172,-0.0167,-0.0178,-0.0122,-0.0114,-0.0114,-0.0016,-0.0002,-0.0071,-0.0067,0.0074,0.0089,0.0103,0.0146,0.017,0.0176,0.018,0.0334,0.0334,0.0335,0,0,0,0,0,0,-0.0225,-0.0222,-0.0176,-0.0185,-0.0176,-0.0123,-0.0123,-0.0113,-0.0096,-0.0009,0.0008,-0.0065,0.0076,0.0095,0.0158,0.0153,0.0179,0.0185,0.0333,0.0334,0.0335,0.0221,0,0,0,0,0,0,-0.0226,-0.0223,-0.0228,-0.0186,-0.0177,-0.0171,-0.0124,-0.0112,-0.0094,-0.0088,0.0001,0.0019,0.0078,0.0148,0.0164,0.0162,0.019,0.0333,0.0334,0.0334,0.0224,0.0218,0.0212,0,0,0,0,0,-0.0228,-0.0244,-0.0229,-0.0225,-0.0186,-0.0172,-0.0164,-0.0121,-0.0095,-0.01,-0.0027,0.0016,0.0165,0.0153,0.0172,0.0171,0.0332,0.0333,0.0334,0.0227,0.0219,0.0212,0,0,0,0,0,0,-0.0266,-0.0237,-0.022,-0.0226,-0.0207,-0.016,-0.0157,-0.013,-0.0079,-0.0065,0.002,0.0042,0.0095,0.0153,0.0137,0.0223,0.0257,0.0262,0.0169,0.0162,0.0157,0.0139,0.0195,0,0,0,0,0,-0.0278,-0.0281,-0.025,-0.0256,-0.0249,-0.0205,-0.0193,-0.0167,-0.0117,-0.0095,-0.0033,0.0045,0.0113,0.0151,0.0215,0.0258,0.0313,0.0274,0.0268,0.0263,0.0263,0.0345,0.0346,0.0339,0.0339,0.0338,0,0,-0.0294,-0.0279,-0.028,-0.0264,-0.0242,-0.024,-0.0195,-0.0185,-0.0173,-0.0081,-0.0043,0.0022,0.012,0.017,0.02,0.0218,0.029,0.0264,0.0258,0.0262,0.0346,0.0347,0.0347,0.0339,0.0339,0.0339,0,0,-0.0332,-0.0316,-0.0332,-0.0322,-0.03,-0.0271,-0.0274,-0.0235,-0.0206,-0.0169,-0.0091,-0.0027,0.0062,0.0134,0.0184,0.0187,0.0252,0.0205,0.0163,0.0241,0.0242,0.0244,0.0288,0.0295,0.0205,0.0205,0.0205,0,-0.0354,-0.0364,-0.0335,-0.0349,-0.0338,-0.0291,-0.0301,-0.0272,-0.0216,-0.0184,-0.017,-0.0023,0.0048,0.0136,0.0133,0.0172,0.0215,0.0174,0.0231,0.0234,0.0237,0.0283,0.0292,0.0199,0.02,0.0201,0.0201,0,-0.0398,-0.0408,-0.0418,-0.0413,-0.04,-0.0404,-0.036,-0.0339,-0.03,-0.026,-0.0184,-0.0091,0.0001,0.0028,0.0079,0.0144,0.0164,0.0206,0.0239,0.0231,0.028,0.0291,0.0192,0.0194,0.0195,0.0197,0,0,-0.0443,-0.0448,-0.0451,-0.0454,-0.0431,-0.0423,-0.0403,-0.0361,-0.0333,-0.0284,-0.0237,-0.0136,-0.0088,-0.0028,0.0047,0.0109,0.0155,0.0154,0.016,0.0178,0.0303,0.033,0.0345,0.0202,0.0204,0.0206,0.0316,0,-0.0484,-0.0521,-0.0503,-0.0522,-0.0532,-0.0481,-0.0461,-0.0414,-0.0364,-0.0313,-0.0216,-0.015,-0.0107,-0.0064,0.0001,0.0128,0.0183,0.012,0.0326,0.0332,0.0343,0.036,0.034,0.0439,0.0327,0.0329,0.0331,0,-0.053,-0.0545,-0.0578,-0.0562,-0.0558,-0.0558,-0.0499,-0.0476,-0.0392,-0.0348,-0.0275,-0.0206,-0.0106,-0.0072,0.0114,0.0069,0.017,0.0257,0.0264,0.0342,0.0381,0.0439,0.0464,0.035,0.0348,0.0347,0.0346,0,-0.0569,-0.059,-0.0613,-0.0614,-0.0595,-0.0583,-0.0559,-0.0489,-0.0447,-0.0372,-0.0336,-0.0219,-0.0144,-0.0013,0.0146,0.0134,0.0348,0.0366,0.0483,0.0485,0.0538,0.0542,0.0496,0.0496,0.0496,0.0496,0.0495,0,-0.0618,-0.0635,-0.0636,-0.0652,-0.0653,-0.0623,-0.0597,-0.0556,-0.0482,-0.0419,-0.036,-0.0283,-0.0124,0.001,0.0141,0.0344,0.0351,0.0481,0.0526,0.0496,0.0495,0.048,0.0476,0.05,0.0499,0.0498,0.0497,0,-0.0662,-0.067,-0.0692,-0.0684,-0.0679,-0.0678,-0.0625,-0.0589,-0.0535,-0.0452,-0.0431,-0.0309,-0.0138,0.0018,0.025,0.0354,0.0535,0.0606,0.0537,0.0573,0.0612,0.0602,0.074,0.0742,0.0744,0.0745,0.0747,0,-0.0695,-0.0717,-0.0718,-0.0716,-0.0716,-0.0703,-0.0674,-0.0618,-0.0565,-0.0448,-0.0397,-0.0253,-0.0099,0.0205,0.0403,0.0628,0.0611,0.0721,0.0707,0.0612,0.0643,0.0629,0.0617,0.0721,0.0722,0.0723,0.0723,0,-0.0741,-0.0737,-0.0743,-0.0735,-0.0723,-0.0696,-0.0653,-0.0617,-0.0521,-0.0435,-0.0282,-0.0165,0.0086,0.0325,0.0567,0.0689,0.0676,0.0745,0.0703,0.0656,0.0603,0.0629,0.0617,0.073,0.073,0.0729,0.0729,0.0728,-0.0755,-0.0763,-0.0748,-0.0726,-0.0705,-0.0646,-0.0578,-0.0505,-0.039,-0.0169,-0.0147,0.0109,0.0179,0.0604,0.0668,0.0758,0.0804,0.0822,0.0817,0.0811,0.0784,0.0736,0.0881,0.0882,0.0882,0.0882,0.0882,0,-0.0749,-0.0735,-0.0726,-0.0674,-0.0598,-0.0604,-0.0508,-0.0381,-0.0188,0.0006,0.0198,0.0369,0.0538,0.0621,0.0792,0.0843,0.0796,0.0807,0.0733,0.073,0.0726,0.0689,0.0764,0.0763,0.0762,0.0762,0,0,-0.0737,-0.0709,-0.0684,-0.0549,-0.05,-0.0354,-0.0267,-0.0087,0.0095,0.0377,0.058,0.0691,0.0703,0.0755,0.0742,0.0793,0.0752,0.0777,0.0884,0.08,0.0794,0.0763,0.0708,0,0,0,0,0]}],[{"header":{"parameterUnit":"m.s-1","parameterCategory":2,"la1":30.2991,"la2":30.254,"lo1":-89.0895,"lo2":-89.0444,"dy":0.0017,"dx":0.0017,"nx":28,"ny":28,"refTime":"2025-03-05T03:00:00:Z","depth":"4","parameterNumber":2,"parameterNumberName":"U-component_of_CURRENTS"},"data":[0,0,0,0,0,0,0,0,0,0,0,0,0,0,0,0,0,0,0,0,0,0,0,0,0,0,0,0,0,0,0,0,0,0,0,0,0,0,0,0,0,0,0,0,0,0,0,0,0,0,0,0,0,0,0,0,0,0,-0.1459,-0.146,0,-0.1532,-0.1533,-0.1534,-0.1567,-0.1567,-0.1568,-0.1568,-0.1589,-0.159,-0.159,0,0,0,0,0,0,0,0,0,0,0,0,0,-0.1377,-0.1378,-0.1459,-0.146,-0.1461,-0.1532,-0.1533,-0.1534,-0.1567,-0.1567,-0.1568,-0.1568,-0.1589,-0.159,-0.159,0,0,0,0,0,0,0,0,0,0,0,0,0,-0.1425,-0.1379,-0.1459,-0.1489,-0.1492,-0.1532,-0.1533,-0.1534,-0.1567,-0.1567,-0.1568,-0.1568,-0.1589,-0.159,-0.159,-0.1588,0,0,-0.1592,-0.1592,0,0,0,0,0,0,0,0,-0.1422,-0.1428,-0.1483,-0.1487,-0.1491,-0.1543,-0.1513,-0.155,-0.1567,-0.1536,-0.1568,-0.1568,-0.1571,-0.1573,-0.1583,-0.1589,-0.159,-0.1592,-0.1593,-0.1593,-0.1593,0,0,0,0,0,0,0,-0.1419,-0.1425,-0.1485,-0.1484,-0.1489,-0.1509,-0.1515,-0.152,-0.1547,-0.1538,-0.1542,-0.1554,-0.1572,-0.1582,-0.1583,-0.159,-0.1592,-0.1593,-0.1593,-0.1593,-0.1671,-0.1673,0,0,0,0,0,0,-0.1414,-0.1422,-0.1483,-0.1488,-0.146,-0.151,-0.1517,-0.1524,-0.1549,-0.1554,-0.1554,-0.1556,-0.1581,-0.1583,-0.1584,-0.1648,-0.1593,-0.1593,-0.1594,-0.167,-0.1672,-0.1673,0,0,0,0,0,0,-0.1412,-0.1418,-0.148,-0.1459,-0.1469,-0.1511,-0.1518,-0.1525,-0.1561,-0.1562,-0.1566,-0.1586,-0.1581,-0.1583,-0.1611,-0.1647,-0.1594,-0.1594,-0.1668,-0.167,-0.1673,-0.1734,0,0,0,0,0,0,-0.1409,-0.1417,-0.1431,-0.1458,-0.147,-0.152,-0.1519,-0.1527,-0.1568,-0.1571,-0.1589,-0.1591,-0.1582,-0.1611,-0.1612,-0.1646,-0.1595,-0.1665,-0.1669,-0.1672,-0.173,-0.1738,-0.1745,0,0,0,0,0,-0.1406,-0.1425,-0.1431,-0.1439,-0.1483,-0.1522,-0.153,-0.1559,-0.1569,-0.159,-0.1603,-0.1591,-0.1632,-0.1612,-0.1613,-0.1649,-0.1664,-0.1668,-0.1671,-0.1726,-0.1737,-0.1745,0,0,0,0,0,0,-0.1405,-0.1431,-0.1438,-0.1467,-0.1499,-0.1529,-0.1558,-0.1575,-0.1603,-0.1611,-0.1607,-0.161,-0.1647,-0.1641,-0.1619,-0.1683,-0.1649,-0.1653,-0.169,-0.1699,-0.1707,-0.1704,-0.1595,0,0,0,0,0,-0.1408,-0.1428,-0.1456,-0.1484,-0.15,-0.1533,-0.1557,-0.1577,-0.1602,-0.1617,-0.1631,-0.1646,-0.1661,-0.1675,-0.1683,-0.1716,-0.1682,-0.1742,-0.175,-0.1757,-0.1756,-0.1743,-0.1749,-0.1686,-0.1686,-0.1686,0,0,-0.1416,-0.1436,-0.1448,-0.1486,-0.1513,-0.1543,-0.1548,-0.1594,-0.1624,-0.1612,-0.1663,-0.1672,-0.1675,-0.1711,-0.1729,-0.1714,-0.1755,-0.1762,-0.1767,-0.1763,-0.1748,-0.1754,-0.1759,-0.1689,-0.1688,-0.1688,0,0,-0.1435,-0.1461,-0.1477,-0.1507,-0.1553,-0.1573,-0.1591,-0.1634,-0.1659,-0.1701,-0.1703,-0.1736,-0.1762,-0.1774,-0.178,-0.1838,-0.1794,-0.185,-0.1891,-0.1879,-0.1884,-0.1887,-0.1837,-0.1835,-0.1858,-0.1858,-0.1858,0,-0.1445,-0.1467,-0.1493,-0.152,-0.155,-0.1588,-0.1617,-0.165,-0.1699,-0.1717,-0.1726,-0.1778,-0.1789,-0.1824,-0.1855,-0.1855,-0.1826,-0.1853,-0.1888,-0.189,-0.1893,-0.1841,-0.1838,-0.1862,-0.1861,-0.1861,-0.1861,0,-0.1466,-0.1497,-0.1517,-0.1557,-0.1592,-0.1632,-0.1673,-0.1714,-0.1749,-0.1773,-0.1824,-0.1845,-0.1872,-0.1894,-0.1896,-0.1933,-0.1897,-0.1893,-0.1858,-0.1903,-0.1845,-0.1841,-0.1867,-0.1865,-0.1864,-0.1863,0,0,-0.1451,-0.1516,-0.1525,-0.1545,-0.1616,-0.1641,-0.17,-0.1748,-0.1773,-0.1834,-0.1862,-0.1924,-0.1939,-0.1948,-0.1961,-0.1971,-0.1972,-0.1952,-0.195,-0.1892,-0.1915,-0.1753,-0.1733,-0.1973,-0.1974,-0.1974,-0.186,0,-0.1459,-0.1504,-0.1542,-0.1594,-0.1618,-0.1676,-0.1719,-0.177,-0.1812,-0.1849,-0.1892,-0.1922,-0.1957,-0.1972,-0.1995,-0.1979,-0.1968,-0.2001,-0.1889,-0.1885,-0.1728,-0.1726,-0.1975,-0.1857,-0.1856,-0.1856,-0.1855,0,-0.1456,-0.1489,-0.1536,-0.1596,-0.1612,-0.1655,-0.1719,-0.176,-0.1821,-0.1852,-0.1904,-0.1926,-0.1974,-0.1982,-0.1981,-0.2001,-0.1965,-0.1945,-0.194,-0.1764,-0.1716,-0.1808,-0.1848,-0.1848,-0.1849,-0.1849,-0.185,0,-0.1406,-0.1479,-0.1514,-0.1541,-0.1618,-0.1653,-0.1696,-0.1762,-0.1788,-0.1849,-0.1866,-0.1922,-0.1939,-0.1937,-0.1917,-0.1951,-0.1869,-0.1902,-0.1712,-0.1699,-0.1853,-0.185,-0.187,-0.187,-0.187,-0.1871,-0.1871,0,-0.1381,-0.1412,-0.1497,-0.1515,-0.1551,-0.1621,-0.166,-0.1707,-0.1768,-0.1771,-0.1861,-0.1851,-0.1931,-0.19,-0.1888,-0.1766,-0.1839,-0.17,-0.1658,-0.1879,-0.1882,-0.1848,-0.1847,-0.1866,-0.1867,-0.1868,-0.1869,0,-0.1315,-0.1375,-0.1414,-0.1501,-0.1527,-0.155,-0.1632,-0.1645,-0.1721,-0.1725,-0.1743,-0.1801,-0.1748,-0.1767,-0.1728,-0.1692,-0.161,-0.1537,-0.1729,-0.1703,-0.1459,-0.1463,-0.1334,-0.1327,-0.1321,-0.1317,-0.1313,0,-0.1281,-0.1297,-0.1383,-0.1401,-0.1444,-0.1496,-0.1516,-0.1605,-0.1612,-0.1657,-0.1631,-0.1619,-0.1631,-0.1431,-0.1487,-0.1407,-0.1399,-0.1355,-0.1463,-0.1431,-0.1404,-0.1417,-0.1429,-0.1304,-0.1302,-0.1301,-0.1299,0,-0.121,-0.1253,-0.1281,-0.132,-0.135,-0.1372,-0.141,-0.1402,-0.1469,-0.1555,-0.1453,-0.141,-0.1329,-0.1302,-0.1227,-0.119,-0.1399,-0.1297,-0.1311,-0.1412,-0.1393,-0.1375,-0.1393,-0.128,-0.1283,-0.1284,-0.1286,0,-0.1151,-0.1154,-0.1197,-0.1216,-0.1248,-0.1227,-0.1265,-0.1244,-0.1256,-0.1313,-0.1257,-0.124,-0.1278,-0.1179,-0.1114,-0.1057,-0.1074,-0.1077,-0.1103,-0.1125,-0.1116,-0.1066,-0.0794,0,0,0,0,0,-0.1089,-0.1082,-0.109,-0.1095,-0.1122,-0.1142,-0.1179,-0.1218,-0.1278,-0.1153,-0.1204,-0.1108,-0.1016,-0.1018,-0.0917,-0.105,-0.1098,-0.0933,-0.1121,-0.1171,-0.1194,-0.1206,0,0,0,0,0,0,-0.1042,-0.1056,-0.1053,-0.0988,-0.0974,-0.0982,-0.1,-0.1041,-0.0981,-0.1044,-0.0985,-0.1042,-0.0961,-0.1039,-0.0892,-0.0894,-0.0988,-0.0938,-0.0934,-0.1158,-0.1179,-0.1197,-0.1217,0,0,0,0,0]},{"header":{"parameterUnit":"m.s-1","parameterCategory":2,"la1":30.2991,"la2":30.254,"lo1":-89.0895,"lo2":-89.0444,"dy":0.0017,"dx":0.0017,"nx":28,"ny":28,"refTime":"2025-03-05T03:00:00:Z","depth":"4","parameterNumber":3,"parameterNumberName":"V-component_of_CURRENTS"},"data":[0,0,0,0,0,0,0,0,0,0,0,0,0,0,0,0,0,0,0,0,0,0,0,0,0,0,0,0,0,0,0,0,0,0,0,0,0,0,0,0,0,0,0,0,0,0,0,0,0,0,0,0,0,0,0,0,0,0,0.0062,0.0062,0,0.009,0.0091,0.0091,0.0125,0.0125,0.0125,0.0126,0.0156,0.0156,0.0156,0,0,0,0,0,0,0,0,0,0,0,0,0,0.0052,0.0052,0.0062,0.0062,0.0062,0.009,0.0091,0.0091,0.0125,0.0125,0.0126,0.0126,0.0155,0.0156,0.0156,0,0,0,0,0,0,0,0,0,0,0,0,0,0.0067,0.0052,0.0062,0.0081,0.0083,0.009,0.0091,0.0091,0.0124,0.0125,0.0126,0.0126,0.0155,0.0156,0.0156,0.0148,0,0,0.0158,0.0159,0,0,0,0,0,0,0,0,0.0066,0.0067,0.0078,0.008,0.0082,0.0103,0.0098,0.011,0.0124,0.011,0.0126,0.0127,0.0137,0.0139,0.0145,0.0149,0.0151,0.0158,0.0159,0.0159,0.0159,0,0,0,0,0,0,0,0.0065,0.0066,0.0074,0.0078,0.0081,0.0094,0.0097,0.01,0.0121,0.0111,0.0114,0.0115,0.0138,0.0144,0.0146,0.0151,0.0158,0.0159,0.0159,0.016,0.017,0.017,0,0,0,0,0,0,0.0057,0.0065,0.0073,0.0075,0.0074,0.0093,0.0097,0.0097,0.0121,0.0125,0.0114,0.0116,0.0143,0.0145,0.0147,0.0139,0.0159,0.016,0.016,0.017,0.017,0.017,0,0,0,0,0,0,0.0057,0.0058,0.0072,0.007,0.0072,0.0093,0.0093,0.0097,0.0104,0.0123,0.0127,0.0116,0.0143,0.0146,0.0149,0.0141,0.016,0.016,0.017,0.017,0.017,0.0123,0,0,0,0,0,0,0.0057,0.0057,0.0055,0.0069,0.0072,0.0066,0.0092,0.0097,0.0103,0.0106,0.0126,0.0129,0.0144,0.0148,0.015,0.0142,0.0161,0.0171,0.017,0.017,0.0125,0.0121,0.0118,0,0,0,0,0,0.0056,0.0049,0.0055,0.0056,0.0068,0.0065,0.0067,0.0085,0.0102,0.0096,0.0116,0.0129,0.0149,0.0148,0.015,0.0142,0.0171,0.017,0.017,0.0126,0.0122,0.0119,0,0,0,0,0,0,0.0043,0.0052,0.0059,0.0055,0.0055,0.007,0.0069,0.0081,0.0092,0.0099,0.0122,0.0126,0.0128,0.0142,0.0141,0.0147,0.0164,0.0164,0.013,0.0126,0.0123,0.011,0.0161,0,0,0,0,0,0.0038,0.0036,0.0042,0.0038,0.0037,0.0052,0.0055,0.0064,0.0075,0.0082,0.0096,0.0115,0.0128,0.0132,0.0144,0.0141,0.0181,0.014,0.0137,0.0134,0.0126,0.0194,0.0197,0.017,0.017,0.017,0,0,0.0033,0.0036,0.0036,0.0034,0.004,0.0024,0.0056,0.0053,0.004,0.0082,0.0074,0.0101,0.0126,0.0127,0.0129,0.0136,0.0162,0.0134,0.0131,0.0125,0.0194,0.0197,0.02,0.0169,0.0169,0.0169,0,0,0.0012,0.0021,0.001,0.0004,0.0003,0.0006,0.0002,0.0011,0.0017,0.0011,0.0046,0.0071,0.0076,0.0102,0.0115,0.0102,0.0144,0.0103,0.0073,0.0139,0.0142,0.0145,0.0197,0.0205,0.01,0.01,0.01,0,0.0005,-0.0012,0.0004,-0.0015,-0.0027,-0.0007,-0.0033,-0.0028,-0.002,-0.0017,-0.0,0.0043,0.0067,0.0084,0.0081,0.0094,0.0134,0.0083,0.0135,0.0139,0.0143,0.0196,0.0206,0.0098,0.0098,0.0098,0.0098,0,-0.0027,-0.0045,-0.0054,-0.0074,-0.0085,-0.0104,-0.0102,-0.0108,-0.0096,-0.0083,-0.0062,-0.0015,0.0012,0.0028,0.0047,0.0082,0.0102,0.0125,0.0144,0.0143,0.0199,0.021,0.0094,0.0095,0.0096,0.0096,0,0,-0.0037,-0.0071,-0.0076,-0.0102,-0.012,-0.0135,-0.0159,-0.0172,-0.0177,-0.0151,-0.0143,-0.0102,-0.006,-0.0042,0.0002,0.0058,0.0124,0.0095,0.0099,0.0143,0.0263,0.0228,0.0237,0.0159,0.0161,0.0162,0.029,0,-0.0071,-0.0121,-0.013,-0.0187,-0.0215,-0.0217,-0.0242,-0.0247,-0.0232,-0.0219,-0.0155,-0.0131,-0.0092,-0.0068,-0.0007,0.0096,0.0151,0.0087,0.0259,0.0264,0.0231,0.0248,0.0167,0.0298,0.0301,0.0302,0.0304,0,-0.0102,-0.0136,-0.0194,-0.0249,-0.0261,-0.0293,-0.0324,-0.0341,-0.0315,-0.0297,-0.0253,-0.0201,-0.0123,-0.0082,0.0086,0.0044,0.0139,0.0223,0.023,0.022,0.0249,0.0301,0.0324,0.0322,0.0321,0.032,0.0318,0,-0.0119,-0.0183,-0.0233,-0.0252,-0.0306,-0.0336,-0.0362,-0.0362,-0.037,-0.0337,-0.0318,-0.023,-0.0161,-0.0039,0.0119,0.0108,0.0317,0.0329,0.0386,0.0385,0.0399,0.0395,0.0445,0.0445,0.0445,0.0445,0.0444,0,-0.0151,-0.0194,-0.0248,-0.0278,-0.0341,-0.0365,-0.041,-0.042,-0.0413,-0.0401,-0.0351,-0.0301,-0.0142,-0.0011,0.0116,0.0284,0.0319,0.0381,0.0417,0.0376,0.0367,0.0407,0.0401,0.0449,0.0448,0.0447,0.0446,0,-0.0158,-0.0194,-0.0256,-0.0324,-0.0351,-0.039,-0.0448,-0.0463,-0.046,-0.0437,-0.0426,-0.0327,-0.0159,-0.0003,0.0221,0.0288,0.0445,0.0496,0.0435,0.0466,0.0467,0.0457,0.0562,0.0562,0.0562,0.0562,0.0561,0,-0.0166,-0.0198,-0.028,-0.0314,-0.0348,-0.0411,-0.0444,-0.0479,-0.0483,-0.0439,-0.0412,-0.0277,-0.0189,0.0097,0.0248,0.0467,0.0492,0.0546,0.0499,0.0455,0.0481,0.0471,0.0461,0.0561,0.0561,0.0561,0.0561,0,-0.0179,-0.0203,-0.025,-0.0314,-0.0364,-0.0417,-0.0464,-0.0473,-0.0482,-0.0485,-0.0386,-0.027,-0.0082,0.0107,0.0274,0.043,0.049,0.0546,0.0546,0.0503,0.0456,0.0479,0.047,0.0561,0.0561,0.0561,0.0561,0,-0.0177,-0.0205,-0.0255,-0.031,-0.0361,-0.0391,-0.0431,-0.0431,-0.0444,-0.0408,-0.0364,-0.0199,-0.0105,0.0091,0.0252,0.0387,0.0409,0.0419,0.0427,0.0429,0.0335,0.0253,0.0329,0,0,0,0,0,-0.0176,-0.0204,-0.0248,-0.03,-0.0338,-0.0361,-0.0421,-0.0449,-0.0463,-0.0395,-0.0388,-0.0222,-0.0011,0.0082,0.0218,0.0252,0.0435,0.0408,0.0451,0.0559,0.0559,0.0467,0,0,0,0,0,0,-0.0177,-0.0217,-0.0239,-0.0265,-0.028,-0.032,-0.0348,-0.0363,-0.0337,-0.0337,-0.0214,-0.0201,0.0023,-0.0054,0.0231,0.0266,0.0301,0.0501,0.0502,0.0558,0.0559,0.0559,0.0464,0,0,0,0,0]}]]